Location: �perlecques
(50.8057°N, 2.1521°E)
Time: 12:42:45
(UTC+00:00)

Cosmos 1850 Rocket - Pass Details

Date: 09 April 2020
Orbit: 754 x 786 km, 74.0° (Epoch: 25 May)

Event Time Altitude Azimuth Distance (km) Brightness Sun altitude
Exits shadow 20:24:22 17° 168° (SSE) 1,853 5.6 -16.1°
Maximum altitude 20:27:59 41° 105° (ESE) 1,082 4.3 -16.5°
Drops below altitude 10° 20:32:50 10° 36° (NE) 2,291 6.5 -17.1°
Sets 20:35:18 0° 29° (NNE) 3,222 7.3 -17.4°
